SWR20F LSZH-LMML

Flight info

Callsign SWR20F
Flight time N/A
Altitude 34000
Route VEBIT T53 GERSA DCT SOSON DCT ODINA DCT BAKRO/N0451F350 DCT RONAB DCT MARON DCT EKOLA L12 GZO
Aircraft A321/M-SDE3FGHIRWY/LB1

Departure

Time 2026-05-01 14:34
Airport Zürich Airport (LSZH)

Arrival

Time N/A
Airport Malta International Airport (LMML)
Time Latitude Longitude Altitude Speed Heading
2026-05-01 13:58 47.45412 8.55946 1397 ft 0 kts 185°
2026-05-01 14:26 47.45413 8.55947 1397 ft 1 kts 185°
2026-05-01 14:27 47.45437 8.55950 1399 ft 4 kts 185°
2026-05-01 14:27 47.45460 8.55954 1402 ft 4 kts 178°
2026-05-01 14:27 47.45482 8.55943 1406 ft 4 kts 130°
2026-05-01 14:28 47.45498 8.55882 1406 ft 0 kts 96°
2026-05-01 14:31 47.45480 8.56119 1397 ft 22 kts 97°
2026-05-01 14:31 47.45513 8.56286 1402 ft 16 kts 51°
2026-05-01 14:31 47.45580 8.56407 1401 ft 13 kts 53°
2026-05-01 14:31 47.45590 8.56528 1401 ft 11 kts 96°
2026-05-01 14:32 47.45580 8.56650 1401 ft 16 kts 96°
2026-05-01 14:32 47.45567 8.56835 1397 ft 17 kts 96°
2026-05-01 14:32 47.45570 8.56987 1398 ft 13 kts 61°
2026-05-01 14:32 47.45639 8.57031 1401 ft 11 kts
2026-05-01 14:33 47.45667 8.56973 1402 ft 0 kts 278°
2026-05-01 14:33 47.45669 8.56948 1398 ft 15 kts 277°
2026-05-01 14:34 47.45711 8.56381 1399 ft 92 kts 276°
2026-05-01 14:34 47.45797 8.55136 1401 ft 149 kts 276°
2026-05-01 14:34 47.45923 8.53448 1697 ft 168 kts 278°
2026-05-01 14:34 47.46053 8.51762 2461 ft 164 kts 277°
2026-05-01 14:35 47.46166 8.50022 2842 ft 181 kts 274°
2026-05-01 14:35 47.46142 8.48074 3060 ft 200 kts 258°
2026-05-01 14:35 47.45386 8.46308 3201 ft 216 kts 219°
2026-05-01 14:35 47.44155 8.44879 3380 ft 235 kts 218°
2026-05-01 14:36 47.42875 8.43168 3619 ft 260 kts 228°
2026-05-01 14:36 47.41735 8.41019 4264 ft 269 kts 235°
2026-05-01 14:36 47.40677 8.38720 5100 ft 271 kts 237°
2026-05-01 14:36 47.39644 8.36391 5930 ft 273 kts 237°
2026-05-01 14:37 47.38651 8.34000 6734 ft 275 kts 243°
2026-05-01 14:37 47.37778 8.31469 7499 ft 277 kts 243°
2026-05-01 14:37 47.36897 8.28921 8243 ft 280 kts 242°
2026-05-01 14:37 47.36002 8.26347 8980 ft 284 kts 242°
2026-05-01 14:38 47.35090 8.23739 9728 ft 288 kts 241°
2026-05-01 14:38 47.34162 8.21106 10418 ft 292 kts 241°
2026-05-01 14:38 47.33188 8.18366 10656 ft 313 kts 241°
2026-05-01 14:38 47.32138 8.15425 10822 ft 336 kts 241°
2026-05-01 14:39 47.30839 8.12452 10950 ft 355 kts 225°
2026-05-01 14:39 47.28748 8.10416 11133 ft 370 kts 198°
2026-05-01 14:39 47.26199 8.09959 11611 ft 375 kts 172°
2026-05-01 14:39 47.23760 8.11152 12190 ft 378 kts 148°
2026-05-01 14:40 47.21849 8.13788 12805 ft 382 kts 123°
2026-05-01 14:40 47.20839 8.17392 13408 ft 386 kts 102°
2026-05-01 14:40 47.20670 8.21344 14046 ft 390 kts 85°
2026-05-01 14:40 47.21212 8.25272 14590 ft 394 kts 76°
2026-05-01 14:41 47.21920 8.29174 15139 ft 396 kts 75°
2026-05-01 14:41 47.22479 8.33146 15661 ft 398 kts 85°
2026-05-01 14:41 47.22395 8.37219 16180 ft 401 kts 99°
2026-05-01 14:41 47.21610 8.41153 16712 ft 403 kts 114°
2026-05-01 14:42 47.20161 8.44704 17196 ft 408 kts 128°
2026-05-01 14:42 47.18129 8.47630 17707 ft 412 kts 142°
2026-05-01 14:42 47.15674 8.49864 18187 ft 417 kts 153°
2026-05-01 14:42 47.12969 8.51446 18654 ft 422 kts 162°
2026-05-01 14:43 47.10086 8.52323 19064 ft 426 kts 173°
2026-05-01 14:43 47.07122 8.52741 19476 ft 429 kts 173°
2026-05-01 14:43 47.04135 8.53163 19886 ft 433 kts 173°
2026-05-01 14:43 47.01127 8.53599 20306 ft 436 kts 173°
2026-05-01 14:44 46.98099 8.54046 20713 ft 439 kts 173°
2026-05-01 14:44 46.91965 8.54941 21543 ft 446 kts 173°
2026-05-01 14:44 46.88915 8.55378 21946 ft 449 kts 173°
2026-05-01 14:45 46.85789 8.55822 22357 ft 452 kts 173°
2026-05-01 14:45 46.79486 8.56722 23189 ft 458 kts 173°
2026-05-01 14:45 46.76304 8.57179 23607 ft 461 kts 173°
2026-05-01 14:46 46.73101 8.57641 23994 ft 463 kts 173°
2026-05-01 14:46 46.66647 8.58567 24665 ft 469 kts 174°
2026-05-01 14:46 46.63392 8.59035 24993 ft 471 kts 174°
2026-05-01 14:47 46.60127 8.59498 25319 ft 473 kts 174°
2026-05-01 14:47 46.56843 8.59962 25649 ft 475 kts 174°
2026-05-01 14:47 46.53549 8.60426 25975 ft 477 kts 174°
2026-05-01 14:48 46.46917 8.61365 26614 ft 481 kts 174°
2026-05-01 14:48 46.43576 8.61836 26931 ft 483 kts 174°
2026-05-01 14:48 46.36903 8.62778 27776 ft 481 kts 174°
2026-05-01 14:49 46.30247 8.63715 28630 ft 479 kts 174°
2026-05-01 14:49 46.23624 8.64651 29453 ft 477 kts 174°
2026-05-01 14:50 46.19249 8.65271 29988 ft 476 kts 174°
2026-05-01 14:50 46.10451 8.66659 30925 ft 474 kts 168°
2026-05-01 14:51 46.07271 8.67876 31236 ft 473 kts 162°
2026-05-01 14:51 46.00986 8.70666 31917 ft 472 kts 162°
2026-05-01 14:52 45.94756 8.73411 32603 ft 471 kts 162°
2026-05-01 14:52 45.91620 8.74786 32949 ft 470 kts 163°
2026-05-01 14:52 45.85370 8.77518 33663 ft 469 kts 163°
2026-05-01 14:53 45.82259 8.78878 33996 ft 468 kts 163°
2026-05-01 14:53 45.79140 8.80242 34296 ft 468 kts 163°
2026-05-01 14:53 45.76023 8.81603 34355 ft 467 kts 163°
2026-05-01 14:54 45.69808 8.84304 34356 ft 466 kts 163°
2026-05-01 14:54 45.63607 8.86999 34356 ft 466 kts 163°
2026-05-01 14:55 45.57397 8.89712 34358 ft 466 kts 163°
2026-05-01 14:55 45.51184 8.92407 34354 ft 467 kts 163°
2026-05-01 14:56 45.44955 8.95086 34355 ft 467 kts 163°
2026-05-01 14:56 45.38731 8.97764 34354 ft 468 kts 163°
2026-05-01 14:57 45.32541 9.00427 34349 ft 468 kts 163°
2026-05-01 14:57 45.23193 9.04441 34338 ft 468 kts 163°
2026-05-01 14:58 45.16947 9.07107 34337 ft 469 kts 163°
2026-05-01 14:58 45.10693 9.09771 34335 ft 469 kts 163°
2026-05-01 14:59 45.04434 9.12433 34336 ft 470 kts 163°
2026-05-01 14:59 44.98169 9.15096 34330 ft 470 kts 163°
2026-05-01 15:00 44.88769 9.19085 34324 ft 471 kts 163°
2026-05-01 15:01 44.82490 9.21722 34313 ft 471 kts 163°
2026-05-01 15:01 44.76200 9.24361 34315 ft 472 kts 163°
2026-05-01 15:02 44.69909 9.27008 34304 ft 472 kts 163°
2026-05-01 15:02 44.63615 9.29646 34305 ft 473 kts 163°
2026-05-01 15:03 44.57308 9.32286 34308 ft 473 kts 163°
2026-05-01 15:03 44.51033 9.34908 34302 ft 473 kts 163°
2026-05-01 15:04 44.44715 9.37541 34299 ft 474 kts 163°
2026-05-01 15:04 44.38399 9.40163 34296 ft 474 kts 163°
2026-05-01 15:05 44.32066 9.42790 34295 ft 475 kts 163°
2026-05-01 15:05 44.25734 9.45411 34295 ft 475 kts 163°
2026-05-01 15:06 44.19390 9.48026 34290 ft 475 kts 163°
2026-05-01 15:06 44.13041 9.50637 34288 ft 476 kts 163°
2026-05-01 15:07 44.06687 9.53242 34287 ft 476 kts 163°
2026-05-01 15:07 44.00326 9.55846 34284 ft 477 kts 163°
2026-05-01 15:08 43.93953 9.58452 34283 ft 478 kts 163°
2026-05-01 15:08 43.87573 9.61057 34284 ft 478 kts 163°
2026-05-01 15:09 43.81178 9.63660 34289 ft 479 kts 163°
2026-05-01 15:09 43.74827 9.66242 34287 ft 479 kts 163°
2026-05-01 15:10 43.68425 9.68845 34290 ft 480 kts 163°
2026-05-01 15:10 43.58805 9.72731 34290 ft 481 kts 163°
2026-05-01 15:11 43.49153 9.76610 34293 ft 482 kts 163°